Regional Weather Roundup
Issued by NWS

Home | Current Version | Previous Version | Graphics & Text | Print | Product List | Glossary On
Versions: 1 2 3 4 5 6 7 8 9 10 11 12 13 14 15 16 17 18 19 20 21 22 23 24 25 26 27 28 29 30 31 32 33 34 35 36 37 38 39 40 41 42 43 44 45 46 47 48 49 50
000
ASUS45 KSLC 182110
RWRUT

UTAH REGIONAL WEATHER ROUNDUP
NATIONAL WEATHER SERVICE SALT LAKE CITY UT
300 PM MDT WED OCT 18 2017

UTZ001>011-023>025-182200-

NORTHERN UTAH

CITY           SKY/WX    TMP DP  RH WIND       PRES   REMARKS
BRIGHAM CITY   SUNNY     68  22  17 SW3       30.16F
HILL AFB       SUNNY     66  23  19 CALM      30.17F
LOGAN          SUNNY     70  27  20 CALM      30.15F
OGDEN          SUNNY     69  26  20 NW5       30.15F
SALT LAKE CITY MOSUNNY   69  33  26 NW7       30.15F
TOOELE VALLEY  SUNNY     64  34  32 N8        30.16F
WENDOVER       SUNNY     60  23  24 E6        30.16F
WEST JORDAN    SUNNY     66  32  27 CALM      30.17F

$$

UTZ011>015-024>027-182200-

CENTRAL/NORTHEAST UTAH

CITY           SKY/WX    TMP DP  RH WIND       PRES   REMARKS
PROVO AIRPORT  SUNNY     64  27  24 SW5       30.16F
MOAB/CANYONLAN SUNNY     73  12   9 VRB3      30.14F
DELTA          SUNNY     68  14  12 CALM      30.16F
PRICE          SUNNY     68  14  12 SE6       30.21F
RICHFIELD      SUNNY     70  16  12 N2        30.17F
ROOSEVELT      SUNNY     68  14  12 E5        30.21F
VERNAL         SUNNY     68  12  11 SE3       30.19F

$$

UTZ013>016-019>022-027-182200-

SOUTHERN UTAH

CITY           SKY/WX    TMP DP  RH WIND       PRES   REMARKS
BRYCE CANYON   CLOUDY    63  14  15 S9        30.28F
CEDAR CITY     CLOUDY    67  17  14 CALM      30.17F
MILFORD        MOSUNNY   72  14  11 NE6       30.15F
ST GEORGE      CLEAR     72  24  16 CALM      30.05F
HANKSVILLE     MOSUNNY   70  16  12 N3        30.16F
KANAB          SUNNY     79  19  11 SW7       30.16F
BLANDING         N/A     69  13  11 S6        30.28F

$$

REGIONAL REPORTS     COLORADO/ARIZONA

CITY           SKY/WX    TMP DP  RH WIND       PRES   REMARKS
CRAIG, CO      SUNNY     70   3   7 W6        30.21F
GRAND JUNCTION SUNNY     70  14  11 VRB3      30.16F
RIFLE, CO      SUNNY     71   5   7 NW3       30.19F
MONTROSE, CO   CLOUDY    69  17  13 NW5       30.21F
CORTEZ, CO     SUNNY     74  19  12 W5        30.20F
COLORADO CITY    N/A     77  23  13 CALM      30.15F
PAGE, AZ       PTSUNNY   73  22  14 VRB3      30.10F
GRAND CANYON   CLOUDY    71  25  17 SW8       30.24F
KINGMAN, AZ    CLOUDY    81  25  12 SW9       30.05F
FLAGSTAFF, AZ  PTSUNNY   69  27  20 S10G20    30.25F

$$

REGIONAL REPORTS    NEVADA/IDAHO/WYOMING

CITY           SKY/WX    TMP DP  RH WIND       PRES   REMARKS
LAS VEGAS, NV  CLOUDY    80  13   8 N5        29.99F
ELY, NY        SUNNY     71  18  13 VRB3      30.18F
ELKO, NV       SUNNY     70   9   9 VRB3      30.15F
POCATELLO, ID  CLOUDY    69  27  20 W14       30.14F
BURLEY, ID     SUNNY     70  26  19 E3        30.09F
FORT BRIDGER,    N/A     67   9  10 NW5       30.27F
EVANSTON, WY   SUNNY     65  10  11 SW6       30.24F
ROCK SPRINGS,  SUNNY     63   5  10 W10       30.23F
KEMMERER, WY   SUNNY     61  10  13 W14G22    30.26S

$$



USA.gov is the U.S. government's official web portal to all federal, state and local government web resources and services.